Time,TemperatureF,DewpointF,PressureIn,WindDirection,WindDirectionDegrees,WindSpeedMPH,WindSpeedGustMPH,Humidity,HourlyPrecipIn,Conditions,Clouds,dailyrainin,SoftwareType,DateUTC
2013-10-23 00:00:00,49.8,48.4,29.45,WSW,256,0.0,0.0,95,0.00,,,0.00,Wunderground v.1.15,2013-10-23 04:00:00,
2013-10-23 00:10:00,49.6,48.2,29.44,WSW,256,0.0,0.0,95,0.00,,,0.00,Wunderground v.1.15,2013-10-23 04:10:00,
2013-10-23 00:20:00,49.5,47.8,29.44,West,279,1.0,6.0,94,0.00,,,0.00,Wunderground v.1.15,2013-10-23 04:20:00,
2013-10-23 00:29:00,49.8,47.6,29.44,West,279,4.0,4.0,92,0.00,,,0.00,Wunderground v.1.15,2013-10-23 04:29:00,
2013-10-23 00:40:00,50.2,47.1,29.43,West,281,2.0,2.0,89,0.00,,,0.00,Wunderground v.1.15,2013-10-23 04:40:00,
2013-10-23 00:49:00,50.2,46.8,29.43,West,279,2.0,3.0,88,0.00,,,0.00,Wunderground v.1.15,2013-10-23 04:49:00,
2013-10-23 01:00:00,49.8,46.4,29.42,West,279,1.0,1.0,88,0.00,,,0.00,Wunderground v.1.15,2013-10-23 05:00:00,
2013-10-23 01:10:00,49.2,46.1,29.43,West,279,2.0,5.0,89,0.00,,,0.00,Wunderground v.1.15,2013-10-23 05:10:00,
2013-10-23 01:20:00,49.0,45.9,29.42,West,275,4.0,8.0,89,0.00,,,0.00,Wunderground v.1.15,2013-10-23 05:20:00,
2013-10-23 01:30:00,48.6,45.5,29.42,West,271,5.0,5.0,89,0.00,,,0.00,Wunderground v.1.15,2013-10-23 05:30:00,
2013-10-23 01:40:00,48.0,45.2,29.42,West,270,3.0,6.0,90,0.00,,,0.00,Wunderground v.1.15,2013-10-23 05:40:00,
2013-10-23 01:49:00,48.1,45.3,29.42,West,278,5.0,5.0,90,0.00,,,0.00,Wunderground v.1.15,2013-10-23 05:49:00,
2013-10-23 02:00:00,48.2,45.1,29.41,West,277,5.0,5.0,89,0.00,,,0.00,Wunderground v.1.15,2013-10-23 06:00:00,
2013-10-23 02:10:00,48.1,45.0,29.41,West,281,5.0,5.0,89,0.00,,,0.00,Wunderground v.1.15,2013-10-23 06:10:00,
2013-10-23 02:19:00,48.2,44.8,29.41,WNW,282,5.0,6.0,88,0.00,,,0.00,Wunderground v.1.15,2013-10-23 06:19:00,
2013-10-23 02:30:00,48.1,44.7,29.41,WNW,285,4.0,4.0,88,0.00,,,0.00,Wunderground v.1.15,2013-10-23 06:30:00,
2013-10-23 02:40:00,47.8,44.1,29.40,West,277,5.0,6.0,87,0.00,,,0.00,Wunderground v.1.15,2013-10-23 06:40:00,
2013-10-23 02:49:00,47.5,44.1,29.40,West,275,5.0,5.0,88,0.00,,,0.00,Wunderground v.1.15,2013-10-23 06:49:00,
2013-10-23 03:00:00,47.2,43.8,29.40,West,277,2.0,5.0,88,0.00,,,0.00,Wunderground v.1.15,2013-10-23 07:00:00,
2013-10-23 03:10:00,47.0,43.6,29.39,West,277,3.0,3.0,88,0.00,,,0.00,Wunderground v.1.15,2013-10-23 07:10:00,
2013-10-23 03:20:00,47.3,43.9,29.39,West,276,4.0,4.0,88,0.00,,,0.00,Wunderground v.1.15,2013-10-23 07:20:00,
2013-10-23 03:30:00,47.0,43.6,29.39,West,275,5.0,7.0,88,0.00,,,0.00,Wunderground v.1.15,2013-10-23 07:30:00,
2013-10-23 03:40:00,46.9,43.5,29.39,West,275,6.0,6.0,88,0.00,,,0.00,Wunderground v.1.15,2013-10-23 07:40:00,
2013-10-23 03:50:00,46.7,43.3,29.38,West,271,5.0,5.0,88,0.00,,,0.00,Wunderground v.1.15,2013-10-23 07:50:00,
2013-10-23 04:00:00,46.1,42.7,29.38,West,265,3.0,3.0,88,0.00,,,0.00,Wunderground v.1.15,2013-10-23 08:00:00,
2013-10-23 04:10:00,45.8,43.0,29.38,West,278,4.0,7.0,90,0.00,,,0.00,Wunderground v.1.15,2013-10-23 08:10:00,
2013-10-23 04:19:00,45.8,43.0,29.37,West,267,7.0,7.0,90,0.00,,,0.00,Wunderground v.1.15,2013-10-23 08:19:00,
2013-10-23 04:30:00,45.8,43.0,29.37,West,269,6.0,6.0,90,0.00,,,0.00,Wunderground v.1.15,2013-10-23 08:30:00,
2013-10-23 04:39:00,45.9,43.1,29.37,West,280,7.0,7.0,90,0.00,,,0.00,Wunderground v.1.15,2013-10-23 08:39:00,
2013-10-23 04:50:00,46.5,43.4,29.37,West,274,8.0,8.0,89,0.00,,,0.00,Wunderground v.1.15,2013-10-23 08:50:00,
2013-10-23 05:00:00,47.0,43.3,29.37,WNW,291,8.0,10.0,87,0.00,,,0.00,Wunderground v.1.15,2013-10-23 09:00:00,
2013-10-23 05:10:00,46.7,43.0,29.37,West,261,6.0,6.0,87,0.00,,,0.00,Wunderground v.1.15,2013-10-23 09:10:00,
2013-10-23 05:20:00,46.4,43.3,29.37,West,263,6.0,6.0,89,0.00,,,0.00,Wunderground v.1.15,2013-10-23 09:20:00,
2013-10-23 05:30:00,46.5,43.1,29.38,West,267,8.0,10.0,88,0.00,,,0.00,Wunderground v.1.15,2013-10-23 09:30:00,
2013-10-23 05:39:00,46.3,42.6,29.37,West,264,9.0,9.0,87,0.00,,,0.00,Wunderground v.1.15,2013-10-23 09:39:00,
2013-10-23 05:50:00,45.9,42.2,29.37,West,270,7.0,7.0,87,0.00,,,0.00,Wunderground v.1.15,2013-10-23 09:50:00,
2013-10-23 06:00:00,45.3,42.0,29.37,West,266,6.0,8.0,88,0.00,,,0.00,Wunderground v.1.15,2013-10-23 10:00:00,
2013-10-23 06:10:00,45.1,41.2,29.37,West,265,10.0,10.0,86,0.00,,,0.00,Wunderground v.1.15,2013-10-23 10:10:00,
2013-10-23 06:20:00,44.7,40.8,29.37,West,275,9.0,11.0,86,0.00,,,0.00,Wunderground v.1.15,2013-10-23 10:20:00,
2013-10-23 06:30:00,44.5,40.0,29.37,West,270,11.0,11.0,84,0.00,,,0.00,Wunderground v.1.15,2013-10-23 10:30:00,
2013-10-23 06:40:00,44.0,39.2,29.37,WNW,283,10.0,10.0,83,0.00,,,0.00,Wunderground v.1.15,2013-10-23 10:40:00,
2013-10-23 06:50:00,43.9,38.8,29.38,West,279,8.0,10.0,82,0.00,,,0.00,Wunderground v.1.15,2013-10-23 10:50:00,
2013-10-23 07:00:00,44.0,38.2,29.38,West,278,9.0,11.0,80,0.00,,,0.00,Wunderground v.1.15,2013-10-23 11:00:00,
2013-10-23 07:10:00,44.0,37.6,29.37,West,275,8.0,8.0,78,0.00,,,0.00,Wunderground v.1.15,2013-10-23 11:10:00,
2013-10-23 07:20:00,43.6,37.5,29.37,West,263,6.0,6.0,79,0.00,,,0.00,Wunderground v.1.15,2013-10-23 11:20:00,
2013-10-23 07:30:00,43.4,37.6,29.37,West,271,7.0,11.0,80,0.00,,,0.00,Wunderground v.1.15,2013-10-23 11:30:00,
2013-10-23 07:40:00,43.4,37.6,29.37,WNW,301,8.0,10.0,80,0.00,,,0.00,Wunderground v.1.15,2013-10-23 11:40:00,
2013-10-23 07:50:00,43.6,37.8,29.37,West,279,10.0,10.0,80,0.00,,,0.00,Wunderground v.1.15,2013-10-23 11:50:00,
2013-10-23 07:59:00,43.6,37.8,29.37,WNW,282,8.0,8.0,80,0.00,,,0.00,Wunderground v.1.15,2013-10-23 11:59:00,
2013-10-23 08:10:00,43.4,38.0,29.37,WNW,286,5.0,5.0,81,0.00,,,0.00,Wunderground v.1.15,2013-10-23 12:10:00,
2013-10-23 08:20:00,43.3,38.2,29.37,West,263,5.0,14.0,82,0.00,,,0.00,Wunderground v.1.15,2013-10-23 12:20:00,
2013-10-23 08:29:00,43.9,38.4,29.37,WNW,286,6.0,6.0,81,0.00,,,0.00,Wunderground v.1.15,2013-10-23 12:29:00,
2013-10-23 08:40:00,44.4,38.9,29.37,WNW,292,4.0,6.0,81,0.00,,,0.00,Wunderground v.1.15,2013-10-23 12:40:00,
2013-10-23 08:49:00,45.0,39.8,29.38,West,279,8.0,13.0,82,0.00,,,0.00,Wunderground v.1.15,2013-10-23 12:49:00,
2013-10-23 09:00:00,45.7,39.9,29.39,West,268,11.0,11.0,80,0.00,,,0.00,Wunderground v.1.15,2013-10-23 13:00:00,
2013-10-23 09:10:00,46.2,41.0,29.39,WNW,293,10.0,10.0,82,0.00,,,0.00,Wunderground v.1.15,2013-10-23 13:10:00,
2013-10-23 09:20:00,46.4,40.9,29.38,WNW,284,8.0,8.0,81,0.00,,,0.00,Wunderground v.1.15,2013-10-23 13:20:00,
2013-10-23 09:29:00,46.2,40.7,29.38,West,267,11.0,17.0,81,0.00,,,0.00,Wunderground v.1.15,2013-10-23 13:29:00,
2013-10-23 09:40:00,46.7,41.2,29.39,West,275,14.0,14.0,81,0.00,,,0.00,Wunderground v.1.15,2013-10-23 13:40:00,
2013-10-23 09:50:00,46.9,40.4,29.39,West,265,13.0,22.0,78,0.00,,,0.00,Wunderground v.1.15,2013-10-23 13:50:00,
2013-10-23 10:00:00,46.2,40.4,29.39,West,259,14.0,14.0,80,0.00,,,0.00,Wunderground v.1.15,2013-10-23 14:00:00,
2013-10-23 10:10:00,46.2,41.0,29.39,West,269,11.0,17.0,82,0.00,,,0.00,Wunderground v.1.15,2013-10-23 14:10:00,
2013-10-23 10:20:00,47.4,40.9,29.39,West,264,11.0,17.0,78,0.00,,,0.00,Wunderground v.1.15,2013-10-23 14:20:00,
2013-10-23 10:30:00,47.3,40.5,29.39,WSW,254,13.0,17.0,77,0.00,,,0.00,Wunderground v.1.15,2013-10-23 14:30:00,
2013-10-23 10:39:00,46.1,40.6,29.39,WNW,291,13.0,13.0,81,0.00,,,0.01,Wunderground v.1.15,2013-10-23 14:39:00,
2013-10-23 10:50:00,47.2,40.7,29.39,West,279,13.0,17.0,78,0.00,,,0.01,Wunderground v.1.15,2013-10-23 14:50:00,
2013-10-23 11:00:00,47.2,39.0,29.39,WNW,292,17.0,17.0,73,0.00,,,0.01,Wunderground v.1.15,2013-10-23 15:00:00,
2013-10-23 11:10:00,48.5,38.4,29.39,West,267,14.0,18.0,68,0.00,,,0.01,Wunderground v.1.15,2013-10-23 15:10:00,
2013-10-23 11:20:00,48.7,37.8,29.39,West,266,16.0,16.0,66,0.00,,,0.01,Wunderground v.1.15,2013-10-23 15:20:00,
2013-10-23 11:30:00,48.3,37.1,29.39,West,279,15.0,17.0,65,0.00,,,0.01,Wunderground v.1.15,2013-10-23 15:30:00,
2013-10-23 11:40:00,47.3,34.9,29.39,West,280,15.0,17.0,62,0.00,,,0.01,Wunderground v.1.15,2013-10-23 15:40:00,
2013-10-23 11:49:00,48.1,36.9,29.38,West,269,16.0,24.0,65,0.00,,,0.01,Wunderground v.1.15,2013-10-23 15:49:00,
2013-10-23 12:00:00,48.9,37.6,29.38,WSW,248,19.0,19.0,65,0.00,,,0.01,Wunderground v.1.15,2013-10-23 16:00:00,
2013-10-23 12:09:00,47.8,36.6,29.39,West,278,16.0,16.0,65,0.00,,,0.01,Wunderground v.1.15,2013-10-23 16:09:00,
2013-10-23 12:20:00,48.5,37.7,29.40,NW,311,14.0,14.0,66,0.00,,,0.01,Wunderground v.1.15,2013-10-23 16:20:00,
2013-10-23 12:30:00,48.1,37.7,29.40,West,273,15.0,15.0,67,0.00,,,0.01,Wunderground v.1.15,2013-10-23 16:30:00,
2013-10-23 12:39:00,48.3,37.5,29.40,West,277,13.0,13.0,66,0.00,,,0.01,Wunderground v.1.15,2013-10-23 16:39:00,
2013-10-23 12:50:00,48.8,35.9,29.40,WNW,286,17.0,17.0,61,0.00,,,0.01,Wunderground v.1.15,2013-10-23 16:50:00,
2013-10-23 13:00:00,49.2,36.3,29.40,WNW,284,14.0,23.0,61,0.00,,,0.01,Wunderground v.1.15,2013-10-23 17:00:00,
2013-10-23 13:10:00,49.4,34.8,29.40,WNW,283,17.0,17.0,57,0.00,,,0.01,Wunderground v.1.15,2013-10-23 17:10:00,
2013-10-23 13:20:00,50.2,34.6,29.40,West,270,18.0,29.0,55,0.00,,,0.01,Wunderground v.1.15,2013-10-23 17:20:00,
2013-10-23 13:30:00,50.5,35.4,29.40,West,277,19.0,19.0,56,0.00,,,0.01,Wunderground v.1.15,2013-10-23 17:30:00,
2013-10-23 13:39:00,49.6,34.1,29.40,WNW,292,14.0,29.0,55,0.00,,,0.01,Wunderground v.1.15,2013-10-23 17:39:00,
2013-10-23 13:50:00,49.4,33.9,29.40,SW,223,18.0,18.0,55,0.00,,,0.01,Wunderground v.1.15,2013-10-23 17:50:00,
2013-10-23 14:00:00,48.3,33.3,29.41,WNW,287,17.0,29.0,56,0.00,,,0.01,Wunderground v.1.15,2013-10-23 18:00:00,
2013-10-23 14:09:00,49.6,34.5,29.41,West,259,17.0,29.0,56,0.00,,,0.01,Wunderground v.1.15,2013-10-23 18:09:00,
2013-10-23 14:20:00,49.7,33.7,29.42,West,277,18.0,29.0,54,0.00,,,0.01,Wunderground v.1.15,2013-10-23 18:20:00,
2013-10-23 14:29:00,47.7,32.8,29.42,West,273,17.0,29.0,56,0.00,,,0.01,Wunderground v.1.15,2013-10-23 18:29:00,
2013-10-23 14:40:00,47.2,32.3,29.43,WNW,294,18.0,18.0,56,0.00,,,0.01,Wunderground v.1.15,2013-10-23 18:40:00,
2013-10-23 14:50:00,46.4,31.1,29.43,West,270,19.0,29.0,55,0.00,,,0.01,Wunderground v.1.15,2013-10-23 18:50:00,
2013-10-23 15:00:00,45.4,31.9,29.44,West,266,17.0,17.0,59,0.00,,,0.01,Wunderground v.1.15,2013-10-23 19:00:00,
2013-10-23 15:10:00,45.2,32.9,29.44,WNW,286,13.0,13.0,62,0.00,,,0.01,Wunderground v.1.15,2013-10-23 19:10:00,
2013-10-23 15:20:00,46.4,32.8,29.45,WNW,284,14.0,29.0,59,0.00,,,0.01,Wunderground v.1.15,2013-10-23 19:20:00,
2013-10-23 15:29:00,45.9,32.8,29.45,West,271,20.0,29.0,60,0.00,,,0.01,Wunderground v.1.15,2013-10-23 19:29:00,
2013-10-23 15:40:00,45.3,32.6,29.46,NW,324,16.0,16.0,61,0.00,,,0.01,Wunderground v.1.15,2013-10-23 19:40:00,
2013-10-23 15:49:00,43.7,32.3,29.47,WNW,294,16.0,29.0,64,0.00,,,0.01,Wunderground v.1.15,2013-10-23 19:49:00,
2013-10-23 16:00:00,43.1,32.9,29.48,WNW,290,17.0,29.0,67,0.00,,,0.01,Wunderground v.1.15,2013-10-23 20:00:00,
2013-10-23 16:10:00,43.2,31.8,29.49,West,271,18.0,18.0,64,0.00,,,0.01,Wunderground v.1.15,2013-10-23 20:10:00,
2013-10-23 16:20:00,43.5,31.7,29.49,NW,310,13.0,13.0,63,0.00,,,0.01,Wunderground v.1.15,2013-10-23 20:20:00,
2013-10-23 16:30:00,43.4,31.6,29.49,NW,305,12.0,12.0,63,0.00,,,0.01,Wunderground v.1.15,2013-10-23 20:30:00,
2013-10-23 16:40:00,42.5,31.2,29.50,WNW,300,14.0,14.0,64,0.00,,,0.01,Wunderground v.1.15,2013-10-23 20:40:00,
2013-10-23 16:50:00,42.5,31.2,29.50,NNW,336,16.0,16.0,64,0.00,,,0.01,Wunderground v.1.15,2013-10-23 20:50:00,
2013-10-23 16:59:00,42.8,31.8,29.50,WNW,282,15.0,16.0,65,0.00,,,0.01,Wunderground v.1.15,2013-10-23 20:59:00,
2013-10-23 17:10:00,43.0,31.6,29.50,WNW,292,14.0,14.0,64,0.00,,,0.01,Wunderground v.1.15,2013-10-23 21:10:00,
2013-10-23 17:20:00,42.7,31.0,29.51,West,266,12.0,12.0,63,0.00,,,0.01,Wunderground v.1.15,2013-10-23 21:20:00,
2013-10-23 17:29:00,41.8,30.9,29.51,West,281,14.0,14.0,65,0.00,,,0.01,Wunderground v.1.15,2013-10-23 21:29:00,
2013-10-23 17:40:00,41.3,30.8,29.52,West,280,12.0,30.0,66,0.00,,,0.01,Wunderground v.1.15,2013-10-23 21:40:00,
2013-10-23 17:49:00,41.0,31.2,29.52,West,265,13.0,30.0,68,0.00,,,0.01,Wunderground v.1.15,2013-10-23 21:49:00,
2013-10-23 18:00:00,40.9,31.5,29.53,NW,304,12.0,12.0,69,0.00,,,0.01,Wunderground v.1.15,2013-10-23 22:00:00,
2013-10-23 18:10:00,40.4,31.0,29.53,NW,310,11.0,30.0,69,0.00,,,0.01,Wunderground v.1.15,2013-10-23 22:10:00,
2013-10-23 18:19:00,40.1,31.1,29.53,NW,305,11.0,30.0,70,0.00,,,0.01,Wunderground v.1.15,2013-10-23 22:19:00,
2013-10-23 18:30:00,40.0,31.4,29.55,WNW,296,11.0,11.0,71,0.00,,,0.01,Wunderground v.1.15,2013-10-23 22:30:00,
2013-10-23 18:39:00,39.7,31.4,29.55,NW,305,11.0,11.0,72,0.00,,,0.01,Wunderground v.1.15,2013-10-23 22:39:00,
2013-10-23 18:50:00,39.3,31.0,29.56,NW,304,11.0,11.0,72,0.00,,,0.01,Wunderground v.1.15,2013-10-23 22:50:00,
2013-10-23 19:00:00,38.8,31.2,29.57,NW,315,10.0,30.0,74,0.00,,,0.01,Wunderground v.1.15,2013-10-23 23:00:00,
2013-10-23 19:10:00,38.5,30.6,29.57,WNW,286,11.0,11.0,73,0.00,,,0.01,Wunderground v.1.15,2013-10-23 23:10:00,
2013-10-23 19:20:00,38.2,30.3,29.57,West,281,11.0,30.0,73,0.00,,,0.01,Wunderground v.1.15,2013-10-23 23:20:00,
2013-10-23 19:30:00,37.9,30.0,29.58,NW,315,11.0,11.0,73,0.00,,,0.01,Wunderground v.1.15,2013-10-23 23:30:00,
2013-10-23 19:40:00,37.5,30.0,29.59,NW,304,9.0,9.0,74,0.00,,,0.01,Wunderground v.1.15,2013-10-23 23:40:00,
2013-10-23 19:50:00,37.4,30.2,29.60,NW,313,9.0,30.0,75,0.00,,,0.01,Wunderground v.1.15,2013-10-23 23:50:00,
2013-10-23 20:00:00,37.0,30.1,29.60,WNW,291,11.0,12.0,76,0.00,,,0.01,Wunderground v.1.15,2013-10-24 00:00:00,
2013-10-23 20:09:00,36.6,30.4,29.60,WNW,297,9.0,13.0,78,0.00,,,0.01,Wunderground v.1.15,2013-10-24 00:09:00,
2013-10-23 20:19:00,36.2,30.0,29.60,WNW,288,9.0,9.0,78,0.00,,,0.01,Wunderground v.1.15,2013-10-24 00:19:00,
2013-10-23 20:30:00,36.0,30.1,29.61,West,275,10.0,10.0,79,0.00,,,0.01,Wunderground v.1.15,2013-10-24 00:30:00,
2013-10-23 20:39:00,35.8,30.2,29.61,West,279,10.0,19.0,80,0.00,,,0.01,Wunderground v.1.15,2013-10-24 00:39:00,
2013-10-23 20:50:00,35.9,30.0,29.61,WNW,300,11.0,16.0,79,0.00,,,0.01,Wunderground v.1.15,2013-10-24 00:50:00,
2013-10-23 20:59:00,35.9,30.0,29.62,WNW,301,11.0,11.0,79,0.00,,,0.01,Wunderground v.1.15,2013-10-24 00:59:00,
2013-10-23 21:10:00,35.9,30.0,29.62,WNW,293,10.0,10.0,79,0.00,,,0.01,Wunderground v.1.15,2013-10-24 01:10:00,
2013-10-23 21:20:00,35.8,30.2,29.63,NW,325,8.0,22.0,80,0.00,,,0.01,Wunderground v.1.15,2013-10-24 01:20:00,
2013-10-23 21:30:00,35.1,29.9,29.64,NW,315,11.0,22.0,81,0.00,,,0.01,Wunderground v.1.15,2013-10-24 01:30:00,
2013-10-23 21:39:00,34.3,29.7,29.64,WNW,301,11.0,11.0,83,0.00,,,0.01,Wunderground v.1.15,2013-10-24 01:39:00,
2013-10-23 21:50:00,33.6,29.3,29.64,NW,315,8.0,8.0,84,0.00,,,0.01,Wunderground v.1.15,2013-10-24 01:50:00,
2013-10-23 22:00:00,33.3,29.0,29.65,NW,309,7.0,22.0,84,0.00,,,0.01,Wunderground v.1.15,2013-10-24 02:00:00,
2013-10-23 22:10:00,33.1,28.5,29.65,NW,311,7.0,22.0,83,0.00,,,0.01,Wunderground v.1.15,2013-10-24 02:10:00,
2013-10-23 22:20:00,33.0,28.4,29.65,NW,315,6.0,22.0,83,0.00,,,0.01,Wunderground v.1.15,2013-10-24 02:20:00,
2013-10-23 22:30:00,32.8,27.9,29.65,NW,319,6.0,6.0,82,0.00,,,0.01,Wunderground v.1.15,2013-10-24 02:30:00,
2013-10-23 22:40:00,32.6,27.4,29.65,NW,318,5.0,22.0,81,0.00,,,0.01,Wunderground v.1.15,2013-10-24 02:40:00,
2013-10-23 22:50:00,32.7,27.5,29.66,West,279,7.0,7.0,81,0.00,,,0.01,Wunderground v.1.15,2013-10-24 02:50:00,
2013-10-23 22:59:00,32.8,27.3,29.67,West,277,7.0,22.0,80,0.00,,,0.01,Wunderground v.1.15,2013-10-24 02:59:00,
2013-10-23 23:10:00,33.2,27.1,29.67,NW,316,7.0,22.0,78,0.00,,,0.01,Wunderground v.1.15,2013-10-24 03:10:00,
2013-10-23 23:20:00,33.5,27.4,29.67,West,281,5.0,5.0,78,0.00,,,0.01,Wunderground v.1.15,2013-10-24 03:20:00,
2013-10-23 23:29:00,33.6,27.5,29.67,WNW,283,4.0,22.0,78,0.00,,,0.01,Wunderground v.1.15,2013-10-24 03:29:00,
2013-10-23 23:40:00,33.8,27.4,29.67,WNW,288,5.0,22.0,77,0.00,,,0.01,Wunderground v.1.15,2013-10-24 03:40:00,
2013-10-23 23:50:00,33.9,27.8,29.68,WNW,296,3.0,3.0,78,0.00,,,0.01,Wunderground v.1.15,2013-10-24 03:50:00,